Darstellungsparameter: Aktuell verwendete Einstellungen:
Skalierung der Graphiken ... ?
xyx+y,   Skalierungsfaktor:      Skalierung: Modus: x, Faktor: 1
Darstellungszeitraum ... ?
Vom - - bis: - -   Zeitraum: 22.04.2010 - 24.04.2010
Min/Max/Avg-Anzeige ... ?
Zeige MMA aktuell
Zeige MMA Monat
Zeige MMA alles
Zeige --A aktuell
Zeige --A Monat
Zeige --A alles
Keine MMA-Anzeige
MMA:
Average (ber die Originaldaten)
MMA-Basis: 22.04.2010 - 24.04.2010
Quicknavigation für Darstellung... ?
Tage:      1T, 2T, 3T, 5T -1T -2T -3T -5T +1T +2T +3T +5T
Wochen: 1W, 2W, 3W -1W -2W -3W +1W +2W +3W
Monate: 1M, 3M, 6M -1M -3M -6M +1M +3M +6M
Jahre:    1J, 3J, 5J, 10J -1J -3J -5J -10J +1J +3J +5J +10J
Nutze für die Darstellung ... ?
Originaldaten oder Mittelwerte auf ...
Stundenbasis Tagesbasis Wochenbasis
Monatsbasis Jahresbasis      Datenbasis: Original-Daten
Darstellen als:
Statistik (Auto) Statistik J:M      Darstellung:
Zur Graphik,    zurück zur Übersicht aller Sensoren.
 
Tabellarische Datenbersicht: ?
 
Sensor: Nr:Datum:Temp:Abs-Feuchte:Windchill:Wind:
Aussen-T/F 1 22-04-2010 00:08:02 4.3 C 3.5 g/m*3 4.3 C 0 km/h
2 22-04-2010 00:20:03 4.1 C 3.46 g/m*3 4.1 C 0 km/h
3 22-04-2010 00:32:03 3.8 C 3.51 g/m*3 3.8 C 0 km/h
4 22-04-2010 00:44:03 3.6 C 3.47 g/m*3 3.6 C 0 km/h
5 22-04-2010 00:56:03 3.5 C 3.57 g/m*3 3.5 C 0 km/h
6 22-04-2010 01:08:03 3.4 C 3.6 g/m*3 3.4 C 0 km/h
7 22-04-2010 01:20:03 3.1 C 3.59 g/m*3 3.1 C 0 km/h
8 22-04-2010 01:32:03 2.9 C 3.66 g/m*3 2.9 C 0 km/h
9 22-04-2010 01:44:03 2.7 C 3.67 g/m*3 2.7 C 0 km/h
10 22-04-2010 01:56:03 2.5 C 3.68 g/m*3 2.5 C 0 km/h
11 22-04-2010 02:08:03 2.3 C 3.69 g/m*3 2.3 C 0 km/h
12 22-04-2010 02:20:03 2.2 C 3.72 g/m*3 2.2 C 0 km/h
13 22-04-2010 02:32:03 2 C 3.78 g/m*3 2 C 0 km/h
14 22-04-2010 02:44:03 2 C 3.78 g/m*3 2 C 0 km/h
15 22-04-2010 02:56:03 1.7 C 3.76 g/m*3 1.7 C 0 km/h
16 22-04-2010 03:08:03 1.5 C 3.71 g/m*3 1.5 C 0 km/h
17 22-04-2010 03:20:03 1.3 C 3.71 g/m*3 1.3 C 0 km/h
18 22-04-2010 03:32:03 1.3 C 3.76 g/m*3 1.3 C 0 km/h
19 22-04-2010 03:44:03 1.2 C 3.74 g/m*3 1.2 C 0 km/h
20 22-04-2010 03:56:03 1.1 C 3.76 g/m*3 1.1 C 0 km/h
21 22-04-2010 04:08:03 1 C 3.79 g/m*3 1 C 0 km/h
22 22-04-2010 04:20:03 0.9 C 3.81 g/m*3 0.9 C 0 km/h
23 22-04-2010 04:32:03 0.8 C 3.79 g/m*3 0.8 C 0 km/h
24 22-04-2010 04:44:04 0.7 C 3.81 g/m*3 0.7 C 0 km/h
25 22-04-2010 04:56:04 0.6 C 3.84 g/m*3 0.6 C 0 km/h
Sensor: Nr:Datum:Temp:Abs-Feuchte:Windchill:Wind:
Aussen-T/F 26 22-04-2010 05:08:04 0.5 C 3.76 g/m*3 0.5 C 0 km/h
27 22-04-2010 05:20:04 0.5 C 3.81 g/m*3 0.5 C 0 km/h
28 22-04-2010 05:32:04 0.3 C 3.76 g/m*3 0.3 C 0 km/h
29 22-04-2010 05:44:04 0.2 C 3.78 g/m*3 0.2 C 0 km/h
30 22-04-2010 05:56:04 0 C 3.73 g/m*3 0 C 0 km/h
31 22-04-2010 06:08:04 -0.2 C 3.68 g/m*3 -0.2 C 0 km/h
32 22-04-2010 06:20:04 -0.2 C 3.73 g/m*3 -0.2 C 0 km/h
33 22-04-2010 06:32:04 -0.2 C 3.73 g/m*3 -0.2 C 0 km/h
34 22-04-2010 06:44:04 -0.1 C 3.8 g/m*3 -0.1 C 0 km/h
35 22-04-2010 06:56:04 -0.1 C 3.85 g/m*3 -0.1 C 0 km/h
36 22-04-2010 07:08:03 -0.2 C 3.82 g/m*3 -0.2 C 0 km/h
37 22-04-2010 07:20:02 -0.2 C 3.87 g/m*3 -0.2 C 0 km/h
38 22-04-2010 07:32:02 0 C 3.92 g/m*3 0 C 0 km/h
39 22-04-2010 07:44:02 0.1 C 3.95 g/m*3 0.1 C 0 km/h
40 22-04-2010 07:56:02 0.3 C 4.01 g/m*3 0.3 C 0 km/h
41 22-04-2010 08:08:02 0.3 C 3.96 g/m*3 0.3 C 0 km/h
42 22-04-2010 08:20:02 0.5 C 4.01 g/m*3 0.5 C 0 km/h
43 22-04-2010 08:32:02 0.6 C 3.99 g/m*3 0.6 C 0 km/h
44 22-04-2010 08:44:02 0.9 C 4.02 g/m*3 0.9 C 0 km/h
45 22-04-2010 08:56:02 1.3 C 4.08 g/m*3 1.3 C 0 km/h
46 22-04-2010 09:08:02 1.7 C 4.08 g/m*3 1.7 C 0 km/h
47 22-04-2010 09:20:02 2.2 C 4 g/m*3 2.2 C 0 km/h
48 22-04-2010 09:32:03 2.8 C 4.05 g/m*3 2.8 C 0 km/h
49 22-04-2010 09:44:03 3.5 C 4.12 g/m*3 3.5 C 0 km/h
50 22-04-2010 09:56:02 4.5 C 4.21 g/m*3 4.5 C 0 km/h
Sensor: Nr:Datum:Temp:Abs-Feuchte:Windchill:Wind:
Aussen-T/F 51 22-04-2010 10:08:01 5.2 C 3.99 g/m*3 5.2 C 0 km/h
52 22-04-2010 10:20:02 5.7 C 3.99 g/m*3 5.7 C 0 km/h
53 22-04-2010 10:32:02 6.4 C 3.73 g/m*3 6.4 C 0 km/h
54 22-04-2010 10:44:02 6.8 C 3.44 g/m*3 6.8 C 0 km/h
55 22-04-2010 10:56:02 7.3 C 3.24 g/m*3 7.3 C 0 km/h
56 22-04-2010 11:08:02 8.3 C 3.2 g/m*3 8.3 C 0 km/h
57 22-04-2010 11:20:02 8.7 C 3.03 g/m*3 8.7 C 0 km/h
58 22-04-2010 11:32:03 9 C 2.91 g/m*3 9 C 0 km/h
59 22-04-2010 11:44:03 9.7 C 3.04 g/m*3 9.7 C 0 km/h
60 22-04-2010 11:56:02 9.9 C 2.89 g/m*3 9.9 C 0 km/h
61 22-04-2010 12:08:01 10 C 2.82 g/m*3 10 C 0 km/h
62 22-04-2010 12:20:02 10.4 C 2.89 g/m*3 10.4 C 0 km/h
63 22-04-2010 12:32:02 10.9 C 2.88 g/m*3 10.9 C 0 km/h
64 22-04-2010 12:44:02 11.1 C 2.92 g/m*3 11.1 C 0 km/h
65 22-04-2010 12:56:02 11.4 C 2.77 g/m*3 11.4 C 0 km/h
66 22-04-2010 13:08:01 12 C 2.66 g/m*3 12 C 0 km/h
67 22-04-2010 13:20:01 12 C 2.13 g/m*3 12 C 0 km/h
68 22-04-2010 13:32:02 13 C 2.27 g/m*3 13 C 0 km/h
69 22-04-2010 13:44:02 13.5 C 2.34 g/m*3 13.5 C 0 km/h
70 22-04-2010 13:56:02 13.3 C 2.31 g/m*3 13.3 C 0 km/h
71 22-04-2010 14:08:02 13.8 C 2.38 g/m*3 13.8 C 0 km/h
72 22-04-2010 14:20:02 14.9 C 2.55 g/m*3 14.9 C 0 km/h
73 22-04-2010 14:32:02 15.5 C 2.64 g/m*3 15.5 C 0 km/h
74 22-04-2010 14:44:02 16 C 2.72 g/m*3 16 C 0 km/h
75 22-04-2010 14:56:02 16.3 C 2.77 g/m*3 16.3 C 0 km/h
Sensor: Nr:Datum:Temp:Abs-Feuchte:Windchill:Wind:
Aussen-T/F 76 22-04-2010 15:08:01 16.1 C 2.74 g/m*3 16.1 C 0 km/h
77 22-04-2010 15:20:02 16 C 2.72 g/m*3 16 C 0 km/h
78 22-04-2010 15:32:02 16 C 2.72 g/m*3 16 C 0 km/h
79 22-04-2010 15:44:02 17.5 C 2.98 g/m*3 17.5 C 0 km/h
80 22-04-2010 15:56:02 16.3 C 2.77 g/m*3 16.3 C 0 km/h
81 22-04-2010 16:08:02 16.3 C 2.77 g/m*3 16.3 C 0 km/h
82 22-04-2010 16:20:02 17.9 C 3.05 g/m*3 17.9 C 0 km/h
83 22-04-2010 16:32:03 18.9 C 3.24 g/m*3 18.9 C 0 km/h
84 22-04-2010 16:44:03 17.5 C 2.98 g/m*3 17.5 C 0 km/h
85 22-04-2010 16:56:02 18.8 C 3.22 g/m*3 18.8 C 0 km/h
86 22-04-2010 17:08:01 19.4 C 3.34 g/m*3 19.4 C 0 km/h
87 22-04-2010 17:20:02 19.4 C 3.34 g/m*3 19.4 C 0 km/h
88 22-04-2010 17:32:02 19.8 C 3.42 g/m*3 19.8 C 0 km/h
89 22-04-2010 17:44:02 21.6 C 3.79 g/m*3 21.6 C 0 km/h
90 22-04-2010 17:56:02 21.2 C 3.71 g/m*3 21.2 C 0 km/h
91 22-04-2010 18:08:03 19.3 C 3.32 g/m*3 19.3 C 0 km/h
92 22-04-2010 18:20:02 18.5 C 3.16 g/m*3 18.5 C 0 km/h
93 22-04-2010 18:32:02 18.9 C 3.24 g/m*3 18.9 C 0 km/h
94 22-04-2010 18:44:02 18.7 C 3.2 g/m*3 18.7 C 0 km/h
95 22-04-2010 18:56:02 17.8 C 3.04 g/m*3 17.8 C 0 km/h
96 22-04-2010 19:08:02 17.2 C 2.93 g/m*3 17.2 C 0 km/h
97 22-04-2010 19:20:01 17 C 2.89 g/m*3 17 C 0 km/h
98 22-04-2010 19:32:02 16.9 C 2.88 g/m*3 16.9 C 0 km/h
99 22-04-2010 19:44:02 16.5 C 2.81 g/m*3 16.5 C 0 km/h
100 22-04-2010 19:56:02 16.3 C 2.77 g/m*3 16.3 C 0 km/h
Sensor: Nr:Datum:Temp:Abs-Feuchte:Windchill:Wind:
Aussen-T/F 101 22-04-2010 20:08:02 15.1 C 2.58 g/m*3 15.1 C 0 km/h
102 22-04-2010 20:20:02 13.9 C 2.4 g/m*3 13.9 C 0 km/h
103 22-04-2010 20:32:02 13.5 C 2.34 g/m*3 13.5 C 0 km/h
104 22-04-2010 20:44:03 12.6 C 2.21 g/m*3 12.6 C 0 km/h
105 22-04-2010 20:56:02 12 C 2.13 g/m*3 12 C 0 km/h
106 22-04-2010 21:08:03 11.7 C 2.41 g/m*3 11.7 C 0 km/h
107 22-04-2010 21:20:02 11.2 C 2.64 g/m*3 11.2 C 0 km/h
108 22-04-2010 21:32:02 10.7 C 2.65 g/m*3 10.7 C 0 km/h
109 22-04-2010 21:44:02 10.3 C 2.68 g/m*3 10.3 C 0 km/h
110 22-04-2010 21:57:02 10 C 2.82 g/m*3 10 C 0 km/h
111 22-04-2010 22:09:02 9.9 C 2.8 g/m*3 9.9 C 0 km/h
112 22-04-2010 22:21:02 9.5 C 2.73 g/m*3 9.5 C 0 km/h
113 22-04-2010 22:33:02 9.2 C 2.77 g/m*3 9.2 C 0 km/h
114 22-04-2010 22:45:02 9.1 C 2.75 g/m*3 9.1 C 0 km/h
115 22-04-2010 22:57:02 8.7 C 2.94 g/m*3 8.7 C 0 km/h
116 22-04-2010 23:09:02 8.5 C 2.99 g/m*3 8.5 C 0 km/h
117 22-04-2010 23:21:02 8.3 C 3.12 g/m*3 8.3 C 0 km/h
118 22-04-2010 23:33:02 8.2 C 3.18 g/m*3 8.2 C 0 km/h
119 22-04-2010 23:45:02 7.9 C 3.29 g/m*3 7.9 C 0 km/h
120 22-04-2010 23:57:02 7.7 C 3.32 g/m*3 7.7 C 0 km/h
121 23-04-2010 00:09:02 7.3 C 3.32 g/m*3 7.3 C 0 km/h
122 23-04-2010 00:21:02 7.1 C 3.28 g/m*3 7.1 C 0 km/h
123 23-04-2010 00:33:02 6.8 C 3.44 g/m*3 6.8 C 0 km/h
124 23-04-2010 00:45:02 6.5 C 3.37 g/m*3 6.5 C 0 km/h
125 23-04-2010 00:57:03 6.2 C 3.46 g/m*3 6.2 C 0 km/h
Sensor: Nr:Datum:Temp:Abs-Feuchte:Windchill:Wind:
Aussen-T/F 126 23-04-2010 01:09:03 6 C 3.41 g/m*3 6 C 0 km/h
127 23-04-2010 01:21:03 5.8 C 3.51 g/m*3 5.8 C 0 km/h
128 23-04-2010 01:33:03 5.5 C 3.51 g/m*3 5.5 C 0 km/h
129 23-04-2010 01:45:03 5.4 C 3.49 g/m*3 5.4 C 0 km/h
130 23-04-2010 01:57:03 5.3 C 3.53 g/m*3 5.3 C 0 km/h
131 23-04-2010 02:09:03 5 C 3.47 g/m*3 5 C 0 km/h
132 23-04-2010 02:21:03 4.8 C 3.62 g/m*3 4.8 C 0 km/h
133 23-04-2010 02:33:03 4.5 C 3.55 g/m*3 4.5 C 0 km/h
134 23-04-2010 02:45:03 4.4 C 3.59 g/m*3 4.4 C 0 km/h
135 23-04-2010 02:57:03 4.2 C 3.61 g/m*3 4.2 C 0 km/h
136 23-04-2010 03:09:03 3.9 C 3.73 g/m*3 3.9 C 0 km/h
137 23-04-2010 03:21:03 3.7 C 3.68 g/m*3 3.7 C 0 km/h
138 23-04-2010 03:33:03 3.5 C 3.75 g/m*3 3.5 C 0 km/h
139 23-04-2010 03:45:03 3.3 C 3.76 g/m*3 3.3 C 0 km/h
140 23-04-2010 03:57:03 3.2 C 3.74 g/m*3 3.2 C 0 km/h
141 23-04-2010 04:09:03 2.9 C 3.78 g/m*3 2.9 C 0 km/h
142 23-04-2010 04:21:03 2.8 C 3.75 g/m*3 2.8 C 0 km/h
143 23-04-2010 04:33:03 2.7 C 3.73 g/m*3 2.7 C 0 km/h
144 23-04-2010 04:45:03 2.5 C 3.68 g/m*3 2.5 C 0 km/h
145 23-04-2010 04:57:03 2.4 C 3.77 g/m*3 2.4 C 0 km/h
146 23-04-2010 05:09:04 2.2 C 3.66 g/m*3 2.2 C 0 km/h
147 23-04-2010 05:21:04 2.1 C 3.69 g/m*3 2.1 C 0 km/h
148 23-04-2010 05:33:04 1.9 C 3.7 g/m*3 1.9 C 0 km/h
149 23-04-2010 05:45:04 1.7 C 3.7 g/m*3 1.7 C 0 km/h
150 23-04-2010 05:57:04 1.6 C 3.79 g/m*3 1.6 C 0 km/h
Sensor: Nr:Datum:Temp:Abs-Feuchte:Windchill:Wind:
Aussen-T/F 151 23-04-2010 06:09:04 1.6 C 3.79 g/m*3 1.6 C 0 km/h
152 23-04-2010 06:21:04 1.4 C 3.79 g/m*3 1.4 C 0 km/h
153 23-04-2010 06:33:04 1.3 C 3.81 g/m*3 1.3 C 0 km/h
154 23-04-2010 06:45:04 1.2 C 3.79 g/m*3 1.2 C 0 km/h
155 23-04-2010 06:57:04 1.3 C 3.81 g/m*3 1.3 C 0 km/h
156 23-04-2010 07:09:02 1.3 C 3.81 g/m*3 1.3 C 0 km/h
157 23-04-2010 07:21:01 1.3 C 3.81 g/m*3 1.3 C 0 km/h
158 23-04-2010 07:33:02 1.5 C 3.87 g/m*3 1.5 C 0 km/h
159 23-04-2010 07:45:01 1.6 C 3.95 g/m*3 1.6 C 0 km/h
160 23-04-2010 07:57:01 1.8 C 4 g/m*3 1.8 C 0 km/h
161 23-04-2010 08:09:02 2 C 3.95 g/m*3 2 C 0 km/h
162 23-04-2010 08:21:01 2.3 C 4.03 g/m*3 2.3 C 0 km/h
163 23-04-2010 08:33:02 2.5 C 4.02 g/m*3 2.5 C 0 km/h
164 23-04-2010 08:45:02 2.9 C 4.13 g/m*3 2.9 C 0 km/h
165 23-04-2010 08:57:02 3.3 C 4.19 g/m*3 3.3 C 0 km/h
166 23-04-2010 09:09:02 3.8 C 4.27 g/m*3 3.8 C 0 km/h
167 23-04-2010 09:21:01 4.6 C 4.23 g/m*3 4.6 C 0 km/h
168 23-04-2010 09:33:02 5.4 C 4.19 g/m*3 5.4 C 0 km/h
169 23-04-2010 09:45:02 6.1 C 4.09 g/m*3 6.1 C 0 km/h
170 23-04-2010 09:57:02 6.7 C 3.95 g/m*3 6.7 C 0 km/h
171 23-04-2010 10:09:02 7.5 C 4 g/m*3 7.5 C 0 km/h
172 23-04-2010 10:21:01 8.3 C 3.96 g/m*3 8.3 C 0 km/h
173 23-04-2010 10:33:02 9 C 3.97 g/m*3 9 C 0 km/h
174 23-04-2010 10:45:02 9.6 C 3.94 g/m*3 9.6 C 0 km/h
175 23-04-2010 10:57:02 10.3 C 3.83 g/m*3 10.3 C 0 km/h
Sensor: Nr:Datum:Temp:Abs-Feuchte:Windchill:Wind:
Aussen-T/F 176 23-04-2010 11:09:02 11 C 3.8 g/m*3 11 C 0 km/h
177 23-04-2010 11:21:01 11.7 C 3.87 g/m*3 11.7 C 0 km/h
178 23-04-2010 11:33:02 12.5 C 3.85 g/m*3 12.5 C 0 km/h
179 23-04-2010 11:45:02 12.9 C 3.49 g/m*3 12.9 C 0 km/h
180 23-04-2010 11:57:02 13.5 C 3.04 g/m*3 13.5 C 0 km/h
181 23-04-2010 12:09:02 14.2 C 3.05 g/m*3 14.2 C 0 km/h
182 23-04-2010 12:21:02 14.4 C 2.47 g/m*3 14.4 C 0 km/h
183 23-04-2010 12:33:02 14.9 C 2.55 g/m*3 14.9 C 0 km/h
184 23-04-2010 12:45:02 15.2 C 2.6 g/m*3 15.2 C 0 km/h
185 23-04-2010 12:57:02 15.7 C 2.68 g/m*3 15.7 C 0 km/h
186 23-04-2010 13:09:02 16.2 C 2.76 g/m*3 16.2 C 0 km/h
187 23-04-2010 13:21:03 17 C 2.89 g/m*3 17 C 0 km/h
188 23-04-2010 13:33:02 17.4 C 2.96 g/m*3 17.4 C 0 km/h
189 23-04-2010 13:45:02 17.8 C 3.04 g/m*3 17.8 C 0 km/h
190 23-04-2010 13:57:02 17.5 C 2.98 g/m*3 17.5 C 0 km/h
191 23-04-2010 14:09:02 18.4 C 3.15 g/m*3 18.4 C 0 km/h
192 23-04-2010 14:21:02 18.5 C 3.16 g/m*3 18.5 C 0 km/h
193 23-04-2010 14:33:02 19.1 C 3.28 g/m*3 19.1 C 0 km/h
194 23-04-2010 14:45:02 19.6 C 3.38 g/m*3 19.6 C 0 km/h
195 23-04-2010 14:57:02 20.9 C 3.64 g/m*3 20.9 C 0 km/h
196 23-04-2010 15:09:02 22.1 C 3.9 g/m*3 22.1 C 0 km/h
197 23-04-2010 15:21:02 21.6 C 3.79 g/m*3 21.6 C 0 km/h
198 23-04-2010 15:33:02 22.5 C 3.99 g/m*3 22.5 C 0 km/h
199 23-04-2010 15:45:03 22.6 C 4.02 g/m*3 22.6 C 0 km/h
200 23-04-2010 15:57:03 22.5 C 3.99 g/m*3 22.5 C 0 km/h
Sensor: Nr:Datum:Temp:Abs-Feuchte:Windchill:Wind:
Aussen-T/F 201 23-04-2010 16:09:02 22.6 C 4.02 g/m*3 22.6 C 0 km/h
202 23-04-2010 16:21:02 22.9 C 4.09 g/m*3 22.9 C 0 km/h
203 23-04-2010 16:33:02 22.9 C 4.09 g/m*3 22.9 C 0 km/h
204 23-04-2010 16:45:02 23 C 4.11 g/m*3 23 C 0 km/h
205 23-04-2010 16:57:02 23.5 C 4.23 g/m*3 23.5 C 0 km/h
206 23-04-2010 17:09:03 24.5 C 4.48 g/m*3 24.5 C 0 km/h
207 23-04-2010 17:21:03 22.9 C 4.09 g/m*3 22.9 C 0 km/h
208 23-04-2010 17:33:02 22.5 C 3.99 g/m*3 22.5 C 0 km/h
209 23-04-2010 17:45:03 23 C 4.11 g/m*3 23 C 0 km/h
210 23-04-2010 17:57:03 24.5 C 4.48 g/m*3 24.5 C 0 km/h
211 23-04-2010 18:09:02 24.1 C 4.38 g/m*3 24.1 C 0 km/h
212 23-04-2010 18:21:03 22.9 C 4.09 g/m*3 22.9 C 0 km/h
213 23-04-2010 18:33:02 22.6 C 4.02 g/m*3 22.6 C 0 km/h
214 23-04-2010 18:45:02 22.1 C 3.9 g/m*3 22.1 C 0 km/h
215 23-04-2010 18:57:02 21.9 C 3.86 g/m*3 21.9 C 0 km/h
216 23-04-2010 19:09:02 21.9 C 3.86 g/m*3 21.9 C 0 km/h
217 23-04-2010 19:21:02 20.9 C 3.64 g/m*3 20.9 C 0 km/h
218 23-04-2010 19:33:02 20.2 C 3.5 g/m*3 20.2 C 0 km/h
219 23-04-2010 19:45:01 19.4 C 3.34 g/m*3 19.4 C 0 km/h
220 23-04-2010 19:57:01 19.2 C 3.3 g/m*3 19.2 C 0 km/h
221 23-04-2010 20:09:02 18.3 C 3.13 g/m*3 18.3 C 0 km/h
222 23-04-2010 20:21:01 17.6 C 3 g/m*3 17.6 C 0 km/h
223 23-04-2010 20:33:01 17 C 2.89 g/m*3 17 C 0 km/h
224 23-04-2010 20:45:01 16.5 C 2.81 g/m*3 16.5 C 0 km/h
225 23-04-2010 20:57:01 15.6 C 2.66 g/m*3 15.6 C 0 km/h
Sensor: Nr:Datum:Temp:Abs-Feuchte:Windchill:Wind:
Aussen-T/F 226 23-04-2010 21:09:01 14.9 C 2.55 g/m*3 14.9 C 0 km/h
227 23-04-2010 21:21:02 14.3 C 2.46 g/m*3 14.3 C 0 km/h
228 23-04-2010 21:33:02 14.2 C 2.44 g/m*3 14.2 C 0 km/h
229 23-04-2010 21:45:02 13.8 C 2.38 g/m*3 13.8 C 0 km/h
230 23-04-2010 21:57:02 13.4 C 2.67 g/m*3 13.4 C 0 km/h
231 23-04-2010 22:09:02 13.1 C 2.62 g/m*3 13.1 C 0 km/h
232 23-04-2010 22:21:03 12.8 C 2.91 g/m*3 12.8 C 0 km/h
233 23-04-2010 22:33:02 12.6 C 2.88 g/m*3 12.6 C 0 km/h
234 23-04-2010 22:46:04 12.4 C 2.84 g/m*3 12.4 C 0 km/h
235 23-04-2010 22:58:04 12.1 C 3.22 g/m*3 12.1 C 0 km/h
236 23-04-2010 23:10:04 11.7 C 3.24 g/m*3 11.7 C 0 km/h
237 23-04-2010 23:22:04 11.2 C 3.34 g/m*3 11.2 C 0 km/h
238 23-04-2010 23:34:04 10.7 C 3.44 g/m*3 10.7 C 0 km/h
239 23-04-2010 23:46:04 10.5 C 3.39 g/m*3 10.5 C 0 km/h
240 23-04-2010 23:58:04 10.2 C 3.43 g/m*3 10.2 C 0 km/h
241 24-04-2010 00:10:04 10 C 3.38 g/m*3 10 C 0 km/h
242 24-04-2010 00:22:04 9.6 C 3.48 g/m*3 9.6 C 0 km/h
243 24-04-2010 00:34:04 9.5 C 3.46 g/m*3 9.5 C 0 km/h
244 24-04-2010 00:46:04 9.4 C 3.53 g/m*3 9.4 C 0 km/h
245 24-04-2010 00:58:04 9 C 3.7 g/m*3 9 C 0 km/h
246 24-04-2010 01:10:05 8.6 C 3.52 g/m*3 8.6 C 0 km/h
247 24-04-2010 01:22:05 8.5 C 3.5 g/m*3 8.5 C 0 km/h
248 24-04-2010 01:34:05 8.4 C 3.56 g/m*3 8.4 C 0 km/h
249 24-04-2010 01:46:05 8.1 C 3.58 g/m*3 8.1 C 0 km/h
250 24-04-2010 01:58:05 7.9 C 3.61 g/m*3 7.9 C 0 km/h
Sensor: Nr:Datum:Temp:Abs-Feuchte:Windchill:Wind:
Aussen-T/F 251 24-04-2010 02:10:05 7.6 C 3.63 g/m*3 7.6 C 0 km/h
252 24-04-2010 02:22:05 7.2 C 3.61 g/m*3 7.2 C 0 km/h
253 24-04-2010 02:34:05 7.1 C 3.59 g/m*3 7.1 C 0 km/h
254 24-04-2010 02:46:05 6.9 C 3.62 g/m*3 6.9 C 0 km/h
255 24-04-2010 02:58:05 6.7 C 3.65 g/m*3 6.7 C 0 km/h
256 24-04-2010 03:10:05 6.6 C 3.62 g/m*3 6.6 C 0 km/h
257 24-04-2010 03:22:05 6.6 C 3.7 g/m*3 6.6 C 0 km/h
258 24-04-2010 03:34:05 6.2 C 3.6 g/m*3 6.2 C 0 km/h
259 24-04-2010 03:46:05 5.9 C 3.68 g/m*3 5.9 C 0 km/h
260 24-04-2010 03:58:05 5.7 C 3.63 g/m*3 5.7 C 0 km/h
261 24-04-2010 04:10:05 5.6 C 3.68 g/m*3 5.6 C 0 km/h
262 24-04-2010 04:22:05 5.4 C 3.7 g/m*3 5.4 C 0 km/h
263 24-04-2010 04:34:05 5.1 C 3.76 g/m*3 5.1 C 0 km/h
264 24-04-2010 04:46:05 5 C 3.74 g/m*3 5 C 0 km/h
265 24-04-2010 04:58:05 4.8 C 3.82 g/m*3 4.8 C 0 km/h
266 24-04-2010 05:10:05 4.6 C 3.77 g/m*3 4.6 C 0 km/h
267 24-04-2010 05:22:06 4.5 C 3.88 g/m*3 4.5 C 0 km/h
268 24-04-2010 05:34:06 4.4 C 3.85 g/m*3 4.4 C 0 km/h
269 24-04-2010 05:46:06 4.1 C 3.84 g/m*3 4.1 C 0 km/h
270 24-04-2010 05:58:06 4 C 3.88 g/m*3 4 C 0 km/h
271 24-04-2010 06:10:06 3.9 C 3.85 g/m*3 3.9 C 0 km/h
272 24-04-2010 06:22:06 3.7 C 3.86 g/m*3 3.7 C 0 km/h
273 24-04-2010 06:34:06 3.6 C 3.96 g/m*3 3.6 C 0 km/h
274 24-04-2010 06:46:06 3.5 C 4 g/m*3 3.5 C 0 km/h
275 24-04-2010 06:58:06 3.5 C 4 g/m*3 3.5 C 0 km/h
Sensor: Nr:Datum:Temp:Abs-Feuchte:Windchill:Wind:
Aussen-T/F 276 24-04-2010 07:10:06 3.6 C 3.96 g/m*3 3.6 C 0 km/h
277 24-04-2010 07:22:06 3.6 C 3.96 g/m*3 3.6 C 0 km/h
278 24-04-2010 07:34:03 3.7 C 4.05 g/m*3 3.7 C 0 km/h
279 24-04-2010 07:46:02 3.9 C 4.11 g/m*3 3.9 C 0 km/h
280 24-04-2010 07:58:02 4.1 C 4.1 g/m*3 4.1 C 0 km/h
281 24-04-2010 08:10:01 4.3 C 4.15 g/m*3 4.3 C 0 km/h
282 24-04-2010 08:22:02 4.5 C 4.14 g/m*3 4.5 C 0 km/h
283 24-04-2010 08:34:01 4.8 C 4.16 g/m*3 4.8 C 0 km/h
284 24-04-2010 08:46:02 5.2 C 4.06 g/m*3 5.2 C 0 km/h
285 24-04-2010 08:58:02 5.4 C 4.05 g/m*3 5.4 C 0 km/h
286 24-04-2010 09:10:02 6.1 C 4.24 g/m*3 6.1 C 0 km/h
287 24-04-2010 09:22:02 7 C 4.26 g/m*3 7 C 0 km/h
288 24-04-2010 09:34:03 7.7 C 4.3 g/m*3 7.7 C 0 km/h
289 24-04-2010 09:46:02 8.4 C 4.16 g/m*3 8.4 C 0 km/h
290 24-04-2010 09:58:03 9.2 C 4.11 g/m*3 9.2 C 0 km/h
291 24-04-2010 10:10:01 10 C 4.13 g/m*3 10 C 0 km/h
292 24-04-2010 10:22:02 10.5 C 4.07 g/m*3 10.5 C 0 km/h
293 24-04-2010 10:34:02 11.3 C 4.28 g/m*3 11.3 C 0 km/h
294 24-04-2010 10:46:02 12.1 C 4.29 g/m*3 12.1 C 0 km/h
295 24-04-2010 10:58:03 13.1 C 4.11 g/m*3 13.1 C 0 km/h
296 24-04-2010 11:10:02 13.8 C 4.05 g/m*3 13.8 C 0 km/h
297 24-04-2010 11:22:02 14.5 C 3.98 g/m*3 14.5 C 0 km/h
298 24-04-2010 11:34:03 15.1 C 3.87 g/m*3 15.1 C 0 km/h
299 24-04-2010 11:46:02 16 C 3.68 g/m*3 16 C 0 km/h
300 24-04-2010 11:58:03 16.8 C 3.86 g/m*3 16.8 C 0 km/h
Sensor: Nr:Datum:Temp:Abs-Feuchte:Windchill:Wind:
Aussen-T/F 301 24-04-2010 12:10:01 17.6 C 3.75 g/m*3 17.6 C 0 km/h
302 24-04-2010 12:22:02 18.4 C 3.15 g/m*3 18.4 C 0 km/h
303 24-04-2010 12:34:02 19 C 3.75 g/m*3 19 C 0 km/h
304 24-04-2010 12:46:02 19.6 C 3.38 g/m*3 19.6 C 0 km/h
305 24-04-2010 12:58:02 19.7 C 3.4 g/m*3 19.7 C 0 km/h
306 24-04-2010 13:10:02 20.5 C 3.56 g/m*3 20.5 C 0 km/h
307 24-04-2010 13:22:02 21.6 C 3.79 g/m*3 21.6 C 0 km/h
308 24-04-2010 13:34:03 22.3 C 3.95 g/m*3 22.3 C 0 km/h
309 24-04-2010 13:46:02 22.6 C 4.02 g/m*3 22.6 C 0 km/h
310 24-04-2010 13:58:03 22.9 C 4.09 g/m*3 22.9 C 0 km/h
311 24-04-2010 14:10:01 23.2 C 4.16 g/m*3 23.2 C 0 km/h
312 24-04-2010 14:22:02 22.9 C 4.09 g/m*3 22.9 C 0 km/h
313 24-04-2010 14:34:02 23.6 C 4.25 g/m*3 23.6 C 0 km/h
314 24-04-2010 14:46:01 24.6 C 4.5 g/m*3 24.6 C 0 km/h
315 24-04-2010 14:58:01 25.3 C 4.68 g/m*3 25.3 C 0 km/h
316 24-04-2010 15:10:01 25.8 C 4.82 g/m*3 25.8 C 0 km/h
317 24-04-2010 15:22:01 24.7 C 4.53 g/m*3 24.7 C 0 km/h
318 24-04-2010 15:34:02 25.6 C 4.76 g/m*3 25.6 C 0 km/h
319 24-04-2010 15:46:02 25.6 C 4.76 g/m*3 25.6 C 0 km/h
320 24-04-2010 15:58:02 26.4 C 4.98 g/m*3 26.4 C 0 km/h
321 24-04-2010 16:10:01 27.3 C 5.23 g/m*3 27.3 C 0 km/h
322 24-04-2010 16:22:02 27.9 C 5.41 g/m*3 27.9 C 0 km/h
323 24-04-2010 16:34:02 27.7 C 5.35 g/m*3 27.7 C 0 km/h
324 24-04-2010 16:46:01 28.5 C 5.59 g/m*3 28.5 C 0 km/h
325 24-04-2010 16:58:01 28.9 C 5.71 g/m*3 28.9 C 0 km/h
Sensor: Nr:Datum:Temp:Abs-Feuchte:Windchill:Wind:
Aussen-T/F 326 24-04-2010 17:10:01 28.9 C 5.71 g/m*3 28.9 C 0 km/h
327 24-04-2010 17:22:01 27.3 C 5.23 g/m*3 27.3 C 0 km/h
328 24-04-2010 17:34:02 28.3 C 5.53 g/m*3 28.3 C 0 km/h
329 24-04-2010 17:46:01 29 C 5.74 g/m*3 29 C 0 km/h
330 24-04-2010 17:58:01 28.8 C 5.68 g/m*3 28.8 C 0 km/h
331 24-04-2010 18:10:02 28.7 C 5.65 g/m*3 28.7 C 0 km/h
332 24-04-2010 18:22:01 28.2 C 5.5 g/m*3 28.2 C 0 km/h
333 24-04-2010 18:34:02 26.9 C 5.12 g/m*3 26.9 C 0 km/h
334 24-04-2010 18:46:01 27.5 C 5.29 g/m*3 27.5 C 0 km/h
335 24-04-2010 18:58:01 27.7 C 5.35 g/m*3 27.7 C 0 km/h
336 24-04-2010 19:10:02 27.2 C 5.2 g/m*3 27.2 C 0 km/h
337 24-04-2010 19:22:01 26.8 C 5.09 g/m*3 26.8 C 0 km/h
338 24-04-2010 19:34:02 26.3 C 4.95 g/m*3 26.3 C 0 km/h
339 24-04-2010 19:46:02 25.9 C 4.84 g/m*3 25.9 C 0 km/h
340 24-04-2010 19:58:02 25.4 C 4.71 g/m*3 25.4 C 0 km/h
341 24-04-2010 20:10:02 24.3 C 4.43 g/m*3 24.3 C 0 km/h
342 24-04-2010 20:22:02 22.9 C 4.09 g/m*3 22.9 C 0 km/h
343 24-04-2010 20:34:02 21 C 3.66 g/m*3 21 C 0 km/h
344 24-04-2010 20:46:02 20 C 3.46 g/m*3 20 C 0 km/h
345 24-04-2010 20:58:02 19.4 C 3.34 g/m*3 19.4 C 0 km/h
346 24-04-2010 21:10:02 19.2 C 3.3 g/m*3 19.2 C 0 km/h
347 24-04-2010 21:22:02 18.4 C 3.15 g/m*3 18.4 C 0 km/h
348 24-04-2010 21:34:02 18 C 3.07 g/m*3 18 C 0 km/h
349 24-04-2010 21:46:02 17.5 C 2.98 g/m*3 17.5 C 0 km/h
350 24-04-2010 21:58:02 16.8 C 2.86 g/m*3 16.8 C 0 km/h
Sensor: Nr:Datum:Temp:Abs-Feuchte:Windchill:Wind:
Aussen-T/F 351 24-04-2010 22:10:02 16.6 C 2.83 g/m*3 16.6 C 0 km/h
352 24-04-2010 22:22:03 16.5 C 2.95 g/m*3 16.5 C 0 km/h
353 24-04-2010 22:34:02 16.2 C 3.17 g/m*3 16.2 C 0 km/h
354 24-04-2010 22:47:03 15.8 C 3.37 g/m*3 15.8 C 0 km/h
355 24-04-2010 22:59:03 15.3 C 3.4 g/m*3 15.3 C 0 km/h
356 24-04-2010 23:11:03 14.8 C 3.55 g/m*3 14.8 C 0 km/h
357 24-04-2010 23:23:03 14.6 C 3.75 g/m*3 14.6 C 0 km/h
358 24-04-2010 23:35:03 14.1 C 3.76 g/m*3 14.1 C 0 km/h
359 24-04-2010 23:47:03 13.6 C 3.77 g/m*3 13.6 C 0 km/h
360 24-04-2010 23:59:04 13.4 C 3.84 g/m*3 13.4 C 0 km/h

Legende:
   Min
   Max


Maximal/Minimal-Werte vom 22.04.2010 - 24.04.2010

Sensor Min Max Avg
Temp
(Aussen-T/F)
-0.2 °C
22-04-2010  06:08:04
29 °C
24-04-2010  17:46:01
11.57 °C
Abs-Feuchte
(Aussen-T/F)
2.13 g/m*3
22-04-2010  13:20:01
5.74 g/m*3
24-04-2010  17:46:01
3.63 g/m*3
Windchill
(Aussen-T/F)
-0.2 C
22-04-2010  06:08:04
29 C
24-04-2010  17:46:01
11.54 C

Die Daten stammen von einer Davis Vantage Pro 2 Wetter-Station und werden unter Linux mit der Software wview2wettercgi und aufbereitet. Alle Angaben erfolgen ohne Gewähr für ihre Vollständigkeit oder Richtigkeit.
Kontakt: Rainer Krienke krienke@uni-koblenz.de . Meine Webseiten an der Uni Koblenz oder privat.
Version: $Revision: 0.78 $